Year,Month,Day,Hour,Minute,Value (Times are PST for barometer in hPa)
2022,05,19,20,02,1023.13
2022,05,19,20,03,1023.10
2022,05,19,20,04,1023.06
2022,05,19,20,05,1023.06
2022,05,19,20,06,1023.13
2022,05,19,20,07,1023.10
2022,05,19,20,08,1023.13
2022,05,19,20,09,1023.13
2022,05,19,20,10,1023.16
2022,05,19,20,11,1023.13
2022,05,19,20,12,1023.16
2022,05,19,20,13,1023.27
2022,05,19,20,14,1023.16
2022,05,19,20,15,1023.13
2022,05,19,20,16,1023.13
2022,05,19,20,17,1023.06
2022,05,19,20,18,1023.13
2022,05,19,20,19,1023.13
2022,05,19,20,20,1023.13
2022,05,19,20,21,1023.20
2022,05,19,20,22,1023.20
2022,05,19,20,23,1023.16
2022,05,19,20,24,1023.16
2022,05,19,20,25,1023.10
2022,05,19,20,26,1023.26
2022,05,19,20,27,1023.16
2022,05,19,20,28,1023.20
2022,05,19,20,29,1023.20
2022,05,19,20,30,1023.16
2022,05,19,20,31,1023.29
2022,05,19,20,32,1023.23
2022,05,19,20,33,1023.23
2022,05,19,20,34,1023.30
2022,05,19,20,35,1023.23
2022,05,19,20,36,1023.30
2022,05,19,20,37,1023.30
2022,05,19,20,38,1023.33
2022,05,19,20,39,1023.37
2022,05,19,20,40,1023.27
2022,05,19,20,41,1023.37
2022,05,19,20,42,1023.37
2022,05,19,20,43,1023.37
2022,05,19,20,44,1023.37
2022,05,19,20,45,1023.37
2022,05,19,20,46,1023.40
2022,05,19,20,47,1023.40
2022,05,19,20,48,1023.37
2022,05,19,20,49,1023.40
2022,05,19,20,50,1023.30
2022,05,19,20,51,1023.37
2022,05,19,20,52,1023.37
2022,05,19,20,53,1023.37
2022,05,19,20,54,1023.40
2022,05,19,20,55,1023.40
2022,05,19,20,56,1023.37
2022,05,19,20,57,1023.37
2022,05,19,20,58,1023.37
2022,05,19,20,59,1023.37
2022,05,19,21,00,1023.37
2022,05,19,21,01,1023.43
2022,05,19,21,02,1023.33
2022,05,19,21,03,1023.43
2022,05,19,21,04,1023.40
2022,05,19,21,05,1023.43
2022,05,19,21,06,1023.37
2022,05,19,21,07,1023.43
2022,05,19,21,08,1023.43
2022,05,19,21,09,1023.47
2022,05,19,21,10,1023.43
2022,05,19,21,11,1023.43
2022,05,19,21,12,1023.47
2022,05,19,21,13,1023.54
2022,05,19,21,14,1023.47
2022,05,19,21,15,1023.54
2022,05,19,21,16,1023.54
2022,05,19,21,17,1023.57
2022,05,19,21,18,1023.57
2022,05,19,21,19,1023.60
2022,05,19,21,20,1023.57
2022,05,19,21,21,1023.50
2022,05,19,21,22,1023.54
2022,05,19,21,23,1023.57
2022,05,19,21,24,1023.64
2022,05,19,21,25,1023.60
2022,05,19,21,26,1023.64
2022,05,19,21,27,1023.64
2022,05,19,21,28,1023.71
2022,05,19,21,29,1023.64
2022,05,19,21,30,1023.64
2022,05,19,21,31,1023.67
2022,05,19,21,32,1023.60
2022,05,19,21,33,1023.67
2022,05,19,21,34,1023.64
2022,05,19,21,35,1023.71
2022,05,19,21,36,1023.64
2022,05,19,21,37,1023.71
2022,05,19,21,38,1023.71
2022,05,19,21,39,1023.74
2022,05,19,21,40,1023.71
2022,05,19,21,41,1023.74
2022,05,19,21,42,1023.71
2022,05,19,21,43,1023.74
2022,05,19,21,44,1023.74
2022,05,19,21,45,1023.74
2022,05,19,21,46,1023.74
2022,05,19,21,47,1023.81
2022,05,19,21,48,1023.74
2022,05,19,21,49,1023.71
2022,05,19,21,50,1023.77
2022,05,19,21,51,1023.64
2022,05,19,21,52,1023.74
2022,05,19,21,53,1023.74
2022,05,19,21,54,1023.81
2022,05,19,21,55,1023.81
2022,05,19,21,56,1023.74
2022,05,19,21,57,1023.74
2022,05,19,21,58,1023.77
2022,05,19,21,59,1023.74
2022,05,19,22,00,1023.81
2022,05,19,22,01,1023.81
2022,05,19,22,02,1023.81
2022,05,19,22,03,1023.74
2022,05,19,22,04,1023.81
2022,05,19,22,05,1023.77
2022,05,19,22,06,1023.84
2022,05,19,22,07,1023.74
2022,05,19,22,08,1023.84
2022,05,19,22,09,1023.84
2022,05,19,22,10,1023.81
2022,05,19,22,11,1023.91
2022,05,19,22,12,1023.88
2022,05,19,22,13,1023.94
2022,05,19,22,14,1023.91
2022,05,19,22,15,1023.81
2022,05,19,22,16,1023.77
2022,05,19,22,17,1023.77
2022,05,19,22,18,1023.77
2022,05,19,22,19,1023.74
2022,05,19,22,20,1023.81
2022,05,19,22,21,1023.81
2022,05,19,22,22,1023.84
2022,05,19,22,23,1023.84
2022,05,19,22,24,1023.81
2022,05,19,22,25,1023.94
2022,05,19,22,26,1023.91
2022,05,19,22,27,1023.84
2022,05,19,22,28,1023.91
2022,05,19,22,29,1023.94
2022,05,19,22,30,1023.98
2022,05,19,22,31,1023.91
2022,05,19,22,32,1023.91
2022,05,19,22,33,1023.88
2022,05,19,22,34,1023.84
2022,05,19,22,35,1023.94
2022,05,19,22,36,1023.84
2022,05,19,22,37,1023.81
2022,05,19,22,38,1023.88
2022,05,19,22,39,1023.88
2022,05,19,22,40,1023.88
2022,05,19,22,41,1023.91
2022,05,19,22,42,1023.91
2022,05,19,22,43,1023.98
2022,05,19,22,44,1023.91
2022,05,19,22,45,1023.91
2022,05,19,22,46,1023.94
2022,05,19,22,47,1023.94
2022,05,19,22,48,1023.98
2022,05,19,22,49,1023.91
2022,05,19,22,50,1023.88
2022,05,19,22,51,1023.91
2022,05,19,22,52,1023.84
2022,05,19,22,53,1023.94
2022,05,19,22,54,1023.91
2022,05,19,22,55,1023.98
2022,05,19,22,56,1023.98
2022,05,19,22,57,1024.04
2022,05,19,22,58,1023.94
2022,05,19,22,59,1023.91
2022,05,19,23,00,1023.91
2022,05,19,23,01,1023.94
2022,05,19,23,02,1023.91
2022,05,19,23,03,1023.98
2022,05,19,23,04,1023.91
2022,05,19,23,05,1023.91
2022,05,19,23,06,1023.84
2022,05,19,23,07,1023.91
2022,05,19,23,08,1023.91
2022,05,19,23,09,1023.94
2022,05,19,23,10,1023.94
2022,05,19,23,11,1024.01
2022,05,19,23,12,1023.94
2022,05,19,23,13,1023.94
2022,05,19,23,14,1023.91
2022,05,19,23,15,1023.91
2022,05,19,23,16,1023.91
2022,05,19,23,17,1023.91
2022,05,19,23,18,1023.88
2022,05,19,23,19,1023.88
2022,05,19,23,20,1023.91
2022,05,19,23,21,1023.81
2022,05,19,23,22,1023.97
2022,05,19,23,23,1023.91
2022,05,19,23,24,1023.88
2022,05,19,23,25,1023.88
2022,05,19,23,26,1023.91
2022,05,19,23,27,1023.91
2022,05,19,23,28,1023.88
2022,05,19,23,29,1023.94
2022,05,19,23,30,1023.94
2022,05,19,23,31,1023.98
2022,05,19,23,32,1023.91
2022,05,19,23,33,1023.98
2022,05,19,23,34,1023.98
2022,05,19,23,35,1023.91
2022,05,19,23,36,1024.01
2022,05,19,23,37,1024.01
2022,05,19,23,38,1024.04
2022,05,19,23,39,1024.04
2022,05,19,23,40,1024.08
2022,05,19,23,41,1023.95
2022,05,19,23,42,1024.01
2022,05,19,23,43,1023.98
2022,05,19,23,44,1024.04
2022,05,19,23,45,1024.04
2022,05,19,23,46,1023.98
2022,05,19,23,47,1024.08
2022,05,19,23,48,1024.04
2022,05,19,23,49,1024.08
2022,05,19,23,50,1024.08
2022,05,19,23,51,1023.98
2022,05,19,23,52,1024.14
2022,05,19,23,53,1024.04
2022,05,19,23,54,1024.04
2022,05,19,23,55,1024.01
2022,05,19,23,56,1024.04
2022,05,19,23,57,1024.04
2022,05,19,23,58,1023.98
2022,05,19,23,59,1024.04
